Location: ?
(35.4554°N, 139.3092°E)
Time: 21:11:58
(UTC+00:00)

Cosmos 1459 Rocket - Pass Details

Date: 21 April 2021
Orbit: 938 x 999 km, 83.0° (Epoch: 10 May)

Event Time Altitude Azimuth Distance (km) Brightness Sun altitude
Rises 18:42:55 0° 355° (N) 3,725 7.4 -15.8°
Reaches altitude 10° 18:45:28 10° 356° (N) 2,769 6.7 -15.3°
Maximum altitude 18:51:50 79° 83° (E) 1,012 4.2 -14.1°
Drops below altitude 10° 18:58:06 10° 170° (S) 2,724 6.2 -13.0°
Sets 19:00:36 0° 172° (S) 3,659 6.8 -12.5°
